Home > Weather > New Salem > Past weeks

Flag for USA Past Weather in New Salem, North Dakota, USA — Yesterday and Last 2 Weeks

Now
86 °F

Sunny.


Feels Like: 88 °F
Forecast: 57 / 92 °F
Wind: 8 mph from Southeast

Location: Bismarck Municipal Airport

Current Time: Aug 28, 2016 at 4:03:48 PM

Latest Report: Aug 28, 2016 at 2:52 PM


Visibility: 10 mi

Pressure: 29.88 "Hg (27.72 "Hg at 664m altitude)

Humidity: 51%

Dew Point: 66 °F

Location of New SalemLocation

Past Weather in New Salem — Graph

°F

New Salem Temperature Yesterday

Maximum temperature yesterday: 80 °F (at 4:52 PM)
Minimum temperature yesterday: 48 °F (at 6:52 AM)
Average temperature yesterday: 64 °F

High & Low Weather Summary for the Past Weeks

 TemperatureHumidityPressure
High89 °F (Aug 22, 4:52 PM)100% (Aug 14, 6:52 AM)30.18 "Hg (Aug 14, 6:52 AM)
Low42 °F (Aug 26, 5:52 AM)21% (Aug 23, 5:52 PM)29.54 "Hg (Aug 23, 2:52 AM)
Average66 °F68%29.95 "Hg
* Reported Aug 13 2:52 PM — Aug 28 2:52 PM, New Salem, Weather by CustomWeather, © 2016

Note: Actual official high and low records may vary slightly from our data, if they occured in-between our weather recording intervals... More about our weather records

Advertising

New Salem Weather History for the Previous 24 Hours

Scroll right to see more
 ConditionsComfort  
Time TempWeatherWind HumidityBarometerVisibility
2:52 PM
Sun, Aug 28
86 °FSunny.8 mph51%29.88 "Hg10 mi
1:52 PM82 °FSunny.6 mph56%29.88 "Hg10 mi
12:52 PM80 °FSunny.7 mph60%29.89 "Hg10 mi
11:52 AM77 °FSunny.5 mph62%29.89 "Hg10 mi
10:52 AM74 °FSunny.8 mph69%29.89 "Hg10 mi
9:52 AM70 °FSunny.9 mph79%29.90 "Hg10 mi
8:52 AM65 °FSunny.No wind87%29.90 "Hg10 mi
7:52 AM59 °FClear.6 mph96%29.90 "Hg10 mi
6:52 AM57 °FClear.6 mph96%29.87 "Hg10 mi
5:52 AM57 °FClear.7 mph90%29.87 "Hg10 mi
4:52 AM57 °FPassing clouds.8 mph87%29.87 "Hg10 mi
3:52 AM57 °FClear.8 mph81%29.88 "Hg10 mi
2:52 AM57 °FClear.7 mph78%29.90 "Hg10 mi
1:52 AM57 °FClear.7 mph81%29.91 "Hg10 mi
12:52 AM58 °FClear.7 mph81%29.90 "Hg10 mi
11:52 PM
Sat, Aug 27
61 °FClear.8 mph72%29.91 "Hg10 mi
10:52 PM61 °FClear.6 mph75%29.91 "Hg10 mi
9:52 PM63 °FClear.5 mph68%29.90 "Hg10 mi
8:52 PM63 °FSunny.6 mph73%29.88 "Hg10 mi
7:52 PM72 °FSunny.7 mph57%29.88 "Hg10 mi
6:52 PM79 °FSunny.7 mph36%29.87 "Hg10 mi
5:52 PM79 °FSunny.3 mph38%29.86 "Hg10 mi
4:52 PM80 °FSunny.7 mph35%29.86 "Hg10 mi
Weather by CustomWeather, © 2016

See weather overviewHow to use our weather pages